Flag for U.S.A. Weather past 2 weeks in Montgomery, Alabama, U.S.A.

Now
47 °F

Passing clouds.


Feels Like: 44 °F
Forecast: 44 / 56 °F
Wind: 7 mph from Northwest

Location: Maxwell Air Force Base / Montgomery

Current Time: Dec 19, 2014 at 6:30:50 PM

Latest Report: Dec 19, 2014 at 5:58 PM


Visibility: 10 mi

Pressure: 30.18 "Hg

Humidity: 89%

Dew point: 44 °F

Location of MontgomeryLocation

Historic Weather in Montgomery — Graph

°F

Montgomery temperature yesterday

Maximum temperature yesterday: 59 °F (at 2:58 PM)
Minimum temperature yesterday: 36 °F (at 6:58 AM)
Average temperature yesterday: 48 °F

Past Weeks' High & Low Weather Summary

 TemperatureHumidityPressure
High75 °F (Dec 5, 12:58 PM)100% (Dec 5, 4:03 AM)30.38 "Hg (Dec 5, 4:03 AM)
Low29 °F (Dec 13, 5:58 AM)21% (Dec 12, 1:58 PM)29.97 "Hg (Dec 16, 2:58 AM)
Average50 °F71%30.20 "Hg
* Reported Dec 4 5:58 PM — Dec 19 5:00 PM, Montgomery, Weather by CustomWeather, © 2014

Note: Actual official high and low records may vary slightly from our data, if they occured in-between our weather recording intervals... More about our weather records

Advertising

Montgomery weather history for previous 24 hours

 ConditionsComfort  
Time TempWeatherWind HumidityBarometerVisibility
5:00 PM
Dec 19
48 °FLight rain. Passing clouds.2 mph82%30.15 "Hg10 mi
4:58 PM49 °FClear.2 mph78%30.16 "Hg10 mi
3:58 PM51 °FBroken clouds.3 mph62%30.15 "Hg10 mi
3:03 PM52 °FScattered clouds.3 mph58%30.10 "Hg10 mi
2:58 PM52 °FPassing clouds.3 mph58%30.11 "Hg10 mi
1:58 PM52 °FPassing clouds.6 mph58%30.13 "Hg10 mi
12:58 PM51 °FSunny.1 mph58%30.17 "Hg10 mi
11:58 AM50 °FPartly sunny.7 mph60%30.18 "Hg10 mi
10:58 AM48 °FPassing clouds.3 mph64%30.22 "Hg10 mi
9:58 AM47 °FSunny.1 mph68%30.25 "Hg10 mi
8:58 AM45 °FSunny.5 mph73%30.22 "Hg10 mi
7:58 AM42 °FScattered clouds.6 mph81%30.21 "Hg10 mi
6:58 AM41 °FPassing clouds.5 mph84%30.18 "Hg10 mi
5:58 AM38 °FClear.1 mph90%30.18 "Hg10 mi
4:58 AM39 °FClear.No wind85%30.17 "Hg10 mi
3:58 AM40 °FClear.6 mph83%30.16 "Hg10 mi
2:58 AM40 °FClear.1 mph86%30.17 "Hg10 mi
1:58 AM42 °FClear.2 mph76%30.17 "Hg10 mi
12:58 AM41 °FClear.No wind82%30.18 "Hg10 mi
11:58 PM
Dec 18
43 °FClear.2 mph78%30.18 "Hg10 mi
10:58 PM46 °FClear.3 mph75%30.20 "Hg10 mi
9:58 PM47 °FClear.3 mph64%30.18 "Hg10 mi
8:58 PM49 °FPassing clouds.2 mph60%30.18 "Hg10 mi
7:58 PM52 °FPassing clouds.7 mph57%30.18 "Hg10 mi
6:58 PM54 °FMostly cloudy.5 mph46%30.18 "Hg10 mi
Weather by CustomWeather, © 2014

See weather overviewHow to use our weather pages